DAL452 KLAX-KSFO

Flight info

Callsign DAL452
Flight time 0h 59m
Altitude 34000
Route SUMMR2 STOKD SERFR SERFR4
Aircraft A20N/M-SDE2E3FGHIRWXY/LB1

Departure

Time 2026-04-23 23:06
Airport Los Angeles International Airport (KLAX)

Arrival

Time 2026-04-24 00:06
Airport San Francisco International Airport (KSFO)
Time Latitude Longitude Altitude Speed Heading
2026-04-23 22:31 33.94700 -118.40678 95 ft 0 kts 220°
2026-04-23 22:52 33.94700 -118.40679 93 ft 0 kts 220°
2026-04-23 22:57 33.94700 -118.40678 93 ft 1 kts 220°
2026-04-23 22:58 33.94718 -118.40659 94 ft 4 kts 221°
2026-04-23 22:58 33.94738 -118.40638 94 ft 4 kts 221°
2026-04-23 22:58 33.94758 -118.40617 93 ft 4 kts 223°
2026-04-23 22:58 33.94772 -118.40592 92 ft 4 kts 264°
2026-04-23 22:59 33.94770 -118.40568 92 ft 0 kts 292°
2026-04-23 23:03 33.94778 -118.40579 106 ft 4 kts 313°
2026-04-23 23:03 33.94824 -118.40603 94 ft 13 kts 349°
2026-04-23 23:03 33.94867 -118.40561 94 ft 12 kts 77°
2026-04-23 23:04 33.94881 -118.40419 96 ft 21 kts 83°
2026-04-23 23:04 33.94913 -118.40322 95 ft 10 kts 46°
2026-04-23 23:04 33.94976 -118.40297 99 ft 9 kts 332°
2026-04-23 23:04 33.94999 -118.40374 99 ft 12 kts 261°
2026-04-23 23:05 33.94998 -118.40387 97 ft 0 kts 261°
2026-04-23 23:05 33.94997 -118.40387 97 ft 0 kts 261°
2026-04-23 23:06 33.94971 -118.40644 97 ft 70 kts 263°
2026-04-23 23:06 33.94883 -118.41498 150 ft 128 kts 261°
2026-04-23 23:06 33.94756 -118.42599 694 ft 138 kts 259°
2026-04-23 23:06 33.94582 -118.43769 1415 ft 145 kts 259°
2026-04-23 23:07 33.94371 -118.44993 2205 ft 153 kts 257°
2026-04-23 23:07 33.94174 -118.46360 2688 ft 178 kts 261°
2026-04-23 23:07 33.94050 -118.47951 3268 ft 204 kts 266°
2026-04-23 23:07 33.94017 -118.48720 3586 ft 213 kts 268°
2026-04-23 23:08 33.94007 -118.49016 3715 ft 217 kts 268°
2026-04-23 23:08 33.94004 -118.49127 3758 ft 218 kts 269°
2026-04-23 23:08 33.93968 -118.51038 4642 ft 238 kts 269°
2026-04-23 23:09 33.93883 -118.53100 5603 ft 257 kts 268°
2026-04-23 23:09 33.93789 -118.55349 6499 ft 278 kts 269°
2026-04-23 23:09 33.93661 -118.57668 7811 ft 273 kts 266°
2026-04-23 23:09 33.93523 -118.59939 9227 ft 274 kts 268°
2026-04-23 23:10 33.93408 -118.62222 9880 ft 270 kts 267°
2026-04-23 23:10 33.93262 -118.64521 10304 ft 289 kts 266°
2026-04-23 23:10 33.93068 -118.67043 10795 ft 316 kts 265°
2026-04-23 23:10 33.92820 -118.69722 11261 ft 324 kts 265°
2026-04-23 23:11 33.92572 -118.72425 11468 ft 326 kts 265°
2026-04-23 23:11 33.92338 -118.75142 11494 ft 326 kts 265°
2026-04-23 23:11 33.92117 -118.77851 11520 ft 325 kts 265°
2026-04-23 23:11 33.91901 -118.80568 11543 ft 326 kts 265°
2026-04-23 23:12 33.91721 -118.83284 11643 ft 325 kts 271°
2026-04-23 23:12 33.91882 -118.86000 11770 ft 325 kts 274°
2026-04-23 23:12 33.91959 -118.88731 12037 ft 329 kts 272°
2026-04-23 23:12 33.92001 -118.91488 13130 ft 327 kts 272°
2026-04-23 23:13 33.92049 -118.94212 14393 ft 325 kts 272°
2026-04-23 23:13 33.92109 -118.96911 15381 ft 328 kts 272°
2026-04-23 23:13 33.92182 -118.99671 16382 ft 331 kts 272°
2026-04-23 23:13 33.92545 -119.02412 17334 ft 335 kts 286°
2026-04-23 23:14 33.93557 -119.04976 18260 ft 343 kts 298°
2026-04-23 23:14 33.94883 -119.07402 19052 ft 349 kts 301°
2026-04-23 23:14 33.96278 -119.09826 19836 ft 355 kts 301°
2026-04-23 23:14 33.97666 -119.12306 20616 ft 359 kts 300°
2026-04-23 23:15 33.99036 -119.14850 21392 ft 364 kts 299°
2026-04-23 23:15 34.00400 -119.17443 22145 ft 370 kts 300°
2026-04-23 23:15 34.02110 -119.19810 22880 ft 381 kts 314°
2026-04-23 23:15 34.04222 -119.21794 23617 ft 390 kts 320°
2026-04-23 23:16 34.06486 -119.23638 23893 ft 393 kts 322°
2026-04-23 23:16 34.08770 -119.25461 23997 ft 394 kts 321°
2026-04-23 23:16 34.11041 -119.27317 24008 ft 394 kts 321°
2026-04-23 23:16 34.13293 -119.29205 24008 ft 394 kts 320°
2026-04-23 23:17 34.15525 -119.31107 24009 ft 393 kts 320°
2026-04-23 23:17 34.17755 -119.33024 24008 ft 393 kts 320°
2026-04-23 23:17 34.19981 -119.34946 24009 ft 393 kts 320°
2026-04-23 23:17 34.22205 -119.36867 24011 ft 393 kts 320°
2026-04-23 23:18 34.24428 -119.38789 24011 ft 392 kts 320°
2026-04-23 23:18 34.26646 -119.40707 24011 ft 393 kts 320°
2026-04-23 23:18 34.28841 -119.42609 24012 ft 393 kts 320°
2026-04-23 23:18 34.31062 -119.44533 24012 ft 393 kts 320°
2026-04-23 23:19 34.33282 -119.46458 24012 ft 392 kts 320°
2026-04-23 23:19 34.35503 -119.48383 24011 ft 393 kts 320°
2026-04-23 23:19 34.37723 -119.50308 24008 ft 393 kts 320°
2026-04-23 23:19 34.39943 -119.52234 24025 ft 393 kts 320°
2026-04-23 23:20 34.41970 -119.54397 24009 ft 387 kts 309°
2026-04-23 23:20 34.43843 -119.56746 24010 ft 389 kts 311°
2026-04-23 23:20 34.45759 -119.59057 24019 ft 388 kts 311°
2026-04-23 23:20 34.47669 -119.61372 24020 ft 389 kts 311°
2026-04-23 23:21 34.49578 -119.63697 24006 ft 388 kts 311°
2026-04-23 23:21 34.51475 -119.66026 24016 ft 389 kts 311°
2026-04-23 23:21 34.53381 -119.68350 24023 ft 388 kts 311°
2026-04-23 23:21 34.55285 -119.70673 24019 ft 387 kts 311°
2026-04-23 23:22 34.57183 -119.72992 24014 ft 388 kts 311°
2026-04-23 23:22 34.59078 -119.75328 24018 ft 388 kts 310°
2026-04-23 23:22 34.60967 -119.77668 24011 ft 388 kts 311°
2026-04-23 23:22 34.62834 -119.79981 24017 ft 389 kts 310°
2026-04-23 23:23 34.64725 -119.82328 24018 ft 389 kts 310°
2026-04-23 23:23 34.66619 -119.84678 24015 ft 389 kts 310°
2026-04-23 23:23 34.68514 -119.87021 24007 ft 389 kts 310°
2026-04-23 23:23 34.70409 -119.89368 24016 ft 389 kts 310°
2026-04-23 23:24 34.72302 -119.91716 24011 ft 389 kts 310°
2026-04-23 23:24 34.74186 -119.94060 24021 ft 387 kts 310°
2026-04-23 23:24 34.76071 -119.96403 24011 ft 388 kts 310°
2026-04-23 23:24 34.77958 -119.98749 24010 ft 388 kts 310°
2026-04-23 23:25 34.79843 -120.01099 24004 ft 388 kts 310°
2026-04-23 23:25 34.81730 -120.03448 24005 ft 388 kts 310°
2026-04-23 23:25 34.83615 -120.05795 24007 ft 388 kts 310°
2026-04-23 23:25 34.85503 -120.08144 24006 ft 388 kts 310°
2026-04-23 23:26 34.87388 -120.10494 24011 ft 388 kts 310°
2026-04-23 23:26 34.89274 -120.12849 24020 ft 389 kts 310°
2026-04-23 23:26 34.91166 -120.15208 24017 ft 387 kts 310°
2026-04-23 23:26 34.93017 -120.17546 24029 ft 389 kts 310°
2026-04-23 23:27 34.94893 -120.19916 24019 ft 388 kts 311°
2026-04-23 23:27 34.96781 -120.22259 24019 ft 388 kts 311°
2026-04-23 23:27 34.98673 -120.24607 24023 ft 388 kts 311°
2026-04-23 23:27 35.00559 -120.26965 24032 ft 389 kts 311°
2026-04-23 23:28 35.02450 -120.29327 24025 ft 388 kts 310°
2026-04-23 23:28 35.04330 -120.31688 24028 ft 389 kts 310°
2026-04-23 23:28 35.06213 -120.34054 24027 ft 388 kts 310°
2026-04-23 23:28 35.08090 -120.36417 24030 ft 387 kts 310°
2026-04-23 23:29 35.09984 -120.38758 24029 ft 388 kts 313°
2026-04-23 23:29 35.11292 -120.40254 24021 ft 389 kts 314°
2026-04-23 23:29 35.13305 -120.42469 24034 ft 390 kts 314°
2026-04-23 23:29 35.15329 -120.44681 24002 ft 390 kts 314°
2026-04-23 23:30 35.17996 -120.47622 23733 ft 389 kts 314°
2026-04-23 23:30 35.19998 -120.49857 23632 ft 392 kts 314°
2026-04-23 23:30 35.22022 -120.52117 23891 ft 394 kts 314°
2026-04-23 23:30 35.23380 -120.53636 24006 ft 389 kts 314°
2026-04-23 23:31 35.25362 -120.55862 24034 ft 387 kts 314°
2026-04-23 23:31 35.27349 -120.58104 24034 ft 388 kts 314°
2026-04-23 23:31 35.29307 -120.60311 24035 ft 388 kts 314°
2026-04-23 23:31 35.31291 -120.62547 24035 ft 388 kts 314°
2026-04-23 23:32 35.33275 -120.64785 24036 ft 388 kts 314°
2026-04-23 23:32 35.35263 -120.67026 24048 ft 388 kts 314°
2026-04-23 23:32 35.37245 -120.69265 24041 ft 388 kts 314°
2026-04-23 23:32 35.39230 -120.71505 24041 ft 388 kts 314°
2026-04-23 23:33 35.41212 -120.73742 24051 ft 386 kts 314°
2026-04-23 23:33 35.43182 -120.75969 24052 ft 385 kts 314°
2026-04-23 23:33 35.45161 -120.78211 24057 ft 386 kts 313°
2026-04-23 23:33 35.47142 -120.80446 24067 ft 385 kts 314°
2026-04-23 23:34 35.49181 -120.82598 24074 ft 389 kts 319°
2026-04-23 23:34 35.51350 -120.84597 24076 ft 389 kts 319°
2026-04-23 23:34 35.53478 -120.86567 24072 ft 388 kts 319°
2026-04-23 23:34 35.55634 -120.88567 24074 ft 389 kts 319°
2026-04-23 23:35 35.57791 -120.90570 24081 ft 388 kts 319°
2026-04-23 23:35 35.59938 -120.92564 24076 ft 387 kts 319°
2026-04-23 23:35 35.62083 -120.94558 24072 ft 387 kts 319°
2026-04-23 23:35 35.64233 -120.96561 24062 ft 388 kts 319°
2026-04-23 23:36 35.66387 -120.98564 24068 ft 388 kts 319°
2026-04-23 23:36 35.68549 -121.00576 24067 ft 389 kts 319°
2026-04-23 23:36 35.70698 -121.02576 24070 ft 387 kts 319°
2026-04-23 23:36 35.72847 -121.04583 24070 ft 388 kts 319°
2026-04-23 23:37 35.75001 -121.06593 24080 ft 387 kts 319°
2026-04-23 23:37 35.77145 -121.08595 24078 ft 387 kts 319°
2026-04-23 23:37 35.79303 -121.10611 23927 ft 388 kts 319°
2026-04-23 23:37 35.81448 -121.12615 23703 ft 386 kts 319°
2026-04-23 23:38 35.83551 -121.14584 23444 ft 384 kts 319°
2026-04-23 23:38 35.85676 -121.16573 23178 ft 382 kts 319°
2026-04-23 23:38 35.87792 -121.18558 22908 ft 381 kts 319°
2026-04-23 23:38 35.89905 -121.20540 22650 ft 380 kts 319°
2026-04-23 23:39 35.92008 -121.22516 22395 ft 381 kts 319°
2026-04-23 23:39 35.94115 -121.24498 22125 ft 380 kts 319°
2026-04-23 23:39 35.96214 -121.26469 21868 ft 378 kts 320°
2026-04-23 23:39 35.98304 -121.28432 21608 ft 377 kts 320°
2026-04-23 23:40 36.00395 -121.30398 21360 ft 377 kts 320°
2026-04-23 23:40 36.02477 -121.32358 21100 ft 376 kts 320°
2026-04-23 23:40 36.04555 -121.34316 20868 ft 374 kts 320°
2026-04-23 23:40 36.06690 -121.36158 20619 ft 376 kts 326°
2026-04-23 23:41 36.09024 -121.37660 20371 ft 380 kts 333°
2026-04-23 23:41 36.11448 -121.38950 20127 ft 379 kts 334°
2026-04-23 23:41 36.13862 -121.40248 19886 ft 378 kts 334°
2026-04-23 23:41 36.16244 -121.41536 19661 ft 378 kts 334°
2026-04-23 23:42 36.18645 -121.42840 19428 ft 377 kts 334°
2026-04-23 23:42 36.21036 -121.44140 19190 ft 374 kts 334°
2026-04-23 23:42 36.23418 -121.45435 18960 ft 374 kts 334°
2026-04-23 23:42 36.25793 -121.46725 18732 ft 371 kts 334°
2026-04-23 23:43 36.28156 -121.48004 18496 ft 371 kts 335°
2026-04-23 23:43 36.30529 -121.49291 18248 ft 371 kts 335°
2026-04-23 23:43 36.32886 -121.50570 17986 ft 370 kts 335°
2026-04-23 23:43 36.35233 -121.51845 17720 ft 367 kts 334°
2026-04-23 23:44 36.37565 -121.53119 17469 ft 367 kts 334°
2026-04-23 23:44 36.39897 -121.54402 17282 ft 366 kts 334°
2026-04-23 23:44 36.42221 -121.55684 17401 ft 367 kts 334°
2026-04-23 23:44 36.44556 -121.56977 17852 ft 367 kts 334°
2026-04-23 23:45 36.46892 -121.58279 18596 ft 369 kts 334°
2026-04-23 23:45 36.49244 -121.59595 19377 ft 374 kts 334°
2026-04-23 23:45 36.51631 -121.60936 19786 ft 378 kts 333°
2026-04-23 23:45 36.53913 -121.62539 19961 ft 376 kts 320°
2026-04-23 23:46 36.55789 -121.64791 19936 ft 376 kts 312°
2026-04-23 23:46 36.57571 -121.67166 19682 ft 375 kts 311°
2026-04-23 23:46 36.59341 -121.69533 19448 ft 371 kts 311°
2026-04-23 23:46 36.61089 -121.71887 19217 ft 371 kts 311°
2026-04-23 23:47 36.62851 -121.74273 18980 ft 374 kts 312°
2026-04-23 23:47 36.64586 -121.76605 18750 ft 369 kts 312°
2026-04-23 23:47 36.66332 -121.78945 18526 ft 370 kts 312°
2026-04-23 23:47 36.68092 -121.81302 18282 ft 374 kts 312°
2026-04-23 23:48 36.69853 -121.83662 18008 ft 370 kts 312°
2026-04-23 23:48 36.71590 -121.85989 17745 ft 365 kts 313°
2026-04-23 23:48 36.73451 -121.88146 17518 ft 367 kts 323°
2026-04-23 23:48 36.75661 -121.89677 17362 ft 361 kts 337°
2026-04-23 23:49 36.80444 -121.91186 16867 ft 351 kts 347°
2026-04-23 23:49 36.82827 -121.91845 16618 ft 351 kts 347°
2026-04-23 23:49 36.85209 -121.92506 16366 ft 350 kts 347°
2026-04-23 23:50 36.87582 -121.93168 16127 ft 349 kts 347°
2026-04-23 23:50 36.89944 -121.93828 15863 ft 347 kts 347°
2026-04-23 23:50 36.92312 -121.94492 15395 ft 349 kts 347°
2026-04-23 23:50 36.94666 -121.95154 14907 ft 343 kts 346°
2026-04-23 23:51 36.96912 -121.95979 14456 ft 338 kts 342°
2026-04-23 23:51 36.99141 -121.96856 14001 ft 334 kts 343°
2026-04-23 23:51 37.01366 -121.97723 13501 ft 334 kts 343°
2026-04-23 23:51 37.03568 -121.98578 13045 ft 331 kts 343°
2026-04-23 23:52 37.05736 -121.99422 12859 ft 320 kts 343°
2026-04-23 23:52 37.07794 -122.00225 12662 ft 299 kts 343°
2026-04-23 23:52 37.09719 -122.00978 12361 ft 283 kts 343°
2026-04-23 23:52 37.11592 -122.01710 11694 ft 282 kts 343°
2026-04-23 23:53 37.13457 -122.02437 11138 ft 278 kts 343°
2026-04-23 23:53 37.15291 -122.03154 10602 ft 273 kts 344°
2026-04-23 23:53 37.17084 -122.03858 10236 ft 268 kts 344°
2026-04-23 23:53 37.18865 -122.04557 9850 ft 269 kts 343°
2026-04-23 23:54 37.20656 -122.05258 9472 ft 269 kts 344°
2026-04-23 23:54 37.22443 -122.05958 9094 ft 269 kts 344°
2026-04-23 23:54 37.24227 -122.06656 8724 ft 268 kts 343°
2026-04-23 23:54 37.26001 -122.07350 8362 ft 267 kts 343°
2026-04-23 23:55 37.27773 -122.08041 8054 ft 265 kts 343°
2026-04-23 23:55 37.29525 -122.08732 7733 ft 262 kts 343°
2026-04-23 23:55 37.31272 -122.09420 7068 ft 265 kts 343°
2026-04-23 23:55 37.33038 -122.10117 6459 ft 266 kts 343°
2026-04-23 23:56 37.34778 -122.10803 6088 ft 256 kts 342°
2026-04-23 23:56 37.36417 -122.11449 5973 ft 237 kts 342°
2026-04-23 23:56 37.37920 -122.12042 5958 ft 216 kts 343°
2026-04-23 23:56 37.39293 -122.12537 5842 ft 201 kts 345°
2026-04-23 23:57 37.40595 -122.12972 5726 ft 187 kts 345°
2026-04-23 23:57 37.41801 -122.13370 5666 ft 168 kts 345°
2026-04-23 23:57 37.42869 -122.13726 5573 ft 148 kts 345°
2026-04-23 23:57 37.43796 -122.14039 5414 ft 131 kts 345°
2026-04-23 23:58 37.44661 -122.14333 5128 ft 128 kts 345°
2026-04-23 23:58 37.45520 -122.14626 4815 ft 128 kts 345°
2026-04-23 23:58 37.46378 -122.14910 4495 ft 127 kts 345°
2026-04-23 23:58 37.47231 -122.15187 4199 ft 126 kts 345°
2026-04-23 23:59 37.48071 -122.15459 3933 ft 124 kts 344°
2026-04-23 23:59 37.48905 -122.15731 3647 ft 123 kts 343°
2026-04-23 23:59 37.49739 -122.16005 3318 ft 124 kts 343°
2026-04-23 23:59 37.50543 -122.16267 3146 ft 114 kts 342°
2026-04-24 00:00 37.51367 -122.16543 3017 ft 126 kts 342°
2026-04-24 00:00 37.52189 -122.16815 2985 ft 121 kts 342°
2026-04-24 00:00 37.53013 -122.17090 2991 ft 121 kts 340°
2026-04-24 00:00 37.53717 -122.17620 3008 ft 120 kts 313°
2026-04-24 00:01 37.54146 -122.18461 2999 ft 113 kts 294°
2026-04-24 00:01 37.54493 -122.19390 2903 ft 118 kts 296°
2026-04-24 00:01 37.54865 -122.20303 2621 ft 116 kts 296°
2026-04-24 00:01 37.55249 -122.21210 2271 ft 117 kts 296°
2026-04-24 00:02 37.55635 -122.22117 1932 ft 118 kts 296°
2026-04-24 00:02 37.56015 -122.23014 1778 ft 111 kts 296°
2026-04-24 00:02 37.56387 -122.23897 1773 ft 115 kts 296°
2026-04-24 00:02 37.56754 -122.24767 1779 ft 112 kts 295°
2026-04-24 00:03 37.57120 -122.25637 1794 ft 115 kts 296°
2026-04-24 00:03 37.57490 -122.26519 1777 ft 112 kts 296°
2026-04-24 00:03 37.57855 -122.27385 1773 ft 110 kts 296°
2026-04-24 00:03 37.58203 -122.28213 1623 ft 105 kts 296°
2026-04-24 00:04 37.58552 -122.29044 1302 ft 109 kts 296°
2026-04-24 00:04 37.58906 -122.29887 1065 ft 104 kts 296°
2026-04-24 00:04 37.59252 -122.30712 936 ft 111 kts 297°
2026-04-24 00:04 37.59614 -122.31573 777 ft 111 kts 296°
2026-04-24 00:05 37.59975 -122.32423 638 ft 108 kts 296°
2026-04-24 00:05 37.60326 -122.33257 499 ft 108 kts 296°
2026-04-24 00:05 37.60666 -122.34062 394 ft 102 kts 295°
2026-04-24 00:05 37.60988 -122.34846 256 ft 101 kts 295°
2026-04-24 00:06 37.61324 -122.35641 103 ft 105 kts 295°
2026-04-24 00:06 37.61652 -122.36429 22 ft 94 kts 297°
2026-04-24 00:06 37.61863 -122.36929 20 ft 34 kts 297°
2026-04-24 00:06 37.61883 -122.37074 20 ft 13 kts 241°
2026-04-24 00:07 37.61834 -122.37119 22 ft 4 kts 207°
2026-04-24 00:07 37.61789 -122.37146 20 ft 10 kts 205°
2026-04-24 00:07 37.61710 -122.37195 21 ft 15 kts 207°
2026-04-24 00:07 37.61620 -122.37284 21 ft 16 kts 254°
2026-04-24 00:08 37.61624 -122.37381 20 ft 7 kts 277°
2026-04-24 00:08 37.61640 -122.37528 20 ft 23 kts 277°
2026-04-24 00:08 37.61648 -122.37602 20 ft 4 kts 278°
2026-04-24 00:08 37.61667 -122.37774 22 ft 26 kts 278°
2026-04-24 00:09 37.61706 -122.37925 20 ft 15 kts 315°
2026-04-24 00:09 37.61770 -122.37949 20 ft 11 kts 350°
2026-04-24 00:09 37.61876 -122.38015 20 ft 21 kts 317°
2026-04-24 00:09 37.61954 -122.38175 22 ft 19 kts 297°
2026-04-24 00:10 37.61978 -122.38249 20 ft 1 kts 260°
2026-04-24 00:10 37.61929 -122.38296 21 ft 11 kts 195°
2026-04-24 00:10 37.61840 -122.38328 20 ft 10 kts 208°
2026-04-24 00:10 37.61832 -122.38341 21 ft 0 kts 247°
2026-04-24 00:11 37.61831 -122.38348 20 ft 3 kts 258°
2026-04-24 00:11 37.61839 -122.38381 22 ft 5 kts 292°
2026-04-24 00:11 37.61846 -122.38401 21 ft 1 kts 297°
2026-04-24 00:11 37.61847 -122.38403 21 ft 0 kts 297°